This demonstration page uses our WeatherBlox Daily Observations layout. Learn more.

Left ArrowRight Arrow

36.19886, -115.1175

Hourly Observations for March 30, 2017

Temp ( °F °C ) Dew Point ( °F °C ) Humidity (%) Winds ( mph kmh ) Pressure ( in mb ) Visibility ( mi km ) Precip ( " mm )
12:53 am 00:53 Clear 60 15.6 31 -0.6 33 33 N N/A 29.96 1015 10 16 N/A
1:53 am 01:53 Clear 58 14.4 31 -0.6 36 36 N N/A 29.93 1014 10 16 N/A
2:53 am 02:53 Clear 57 13.9 31 -0.6 37 37 N 5 7 29.91 1013 10 16 N/A
3:53 am 03:53 Clear 56 13.3 30 -1.1 37 37 N 3 6 29.89 1012 10 16 N/A
4:53 am 04:53 Clear 55 12.8 32 undefined 42 42 NW 6 9 29.86 1011 10 16 N/A
5:53 am 05:53 Clear 55 12.8 31 -0.6 40 40 N 3 6 29.84 1011 10 16 N/A
6:53 am 06:53 Sunny 54 12.2 32 undefined 43 43 NW 7 11 29.84 1010 10 16 N/A
7:53 am 07:53 Sunny 58 14.4 28 -2.2 32 32 SSE 3 6 29.80 1009 10 16 N/A
8:53 am 08:53 Sunny 63 17.2 30 -1.1 29 29 SSE 8 13 29.73 1007 10 16 N/A
9:53 am 09:53 Sunny 66 18.9 28 -2.2 24 24 E 10 17 29.69 1006 10 16 N/A
10:48 am 10:48 Sunny 73 23 30 -1 20 20 WSW 14 22 29.53 1000 10 16 N/A
10:53 am 10:53 Sunny 74 23.3 31 -0.6 20 20 W 10 17 29.62 1003 10 16 N/A
11:53 am 11:53 Sunny 77 25 31 -0.6 18 18 WSW 24 39 29.57 1002 10 16 N/A
12:53 pm 12:53 Sunny 81 27.2 31 -0.6 16 16 W 26 43 29.46 998 10 16 N/A
1:53 pm 13:53 Sunny 80 26.7 31 -0.6 17 17 WSW 24 39 29.42 996 10 16 N/A
2:53 pm 14:53 Cloudy 76 24.4 31 -0.6 19 19 SW 36 57 29.43 997 9 14 N/A
3:23 pm 15:23 Cloudy with Haze 69 20.6 29 -1.7 22 22 NNW 36 57 29.41 996 5 8 N/A
3:26 pm 15:26 Cloudy with Haze 64 18 30 -1 28 28 NNW 49 80 29.41 996 2 3 N/A
3:28 pm 15:28 Cloudy with Light Rain 62 16.7 33 0.6 34 34 NNW 51 81 29.41 996 1 2 N/A
3:35 pm 15:35 Cloudy with Light Rain 59 15 34 1.1 39 39 NNW 44 70 29.47 998 1 1 N/A
3:41 pm 15:41 Cloudy with Haze 58 14.4 36 2.2 44 44 NNW 40 65 29.47 998 2 3 N/A
3:43 pm 15:43 Cloudy with Haze 58 14.4 36 2.2 44 44 NNW 46 74 29.44 997 3 4 N/A
3:50 pm 15:50 Mostly Cloudy with Blowing Dust 57 14 36 2 44 44 NNW 44 70 29.47 998 4 6 N/A
3:53 pm 15:53 Mostly Cloudy with Blowing Dust 57 13.9 35 1.7 44 44 NNW 39 63 29.55 1001 4 6 N/A
4:04 pm 16:04 Mostly Cloudy with Blowing Dust 55 13 34 1 44 44 NNW 44 70 29.50 999 3 5 N/A
4:53 pm 16:53 Cloudy with Blowing Dust 56 13.3 29 -1.7 36 36 NW 29 46 29.59 1002 10 16 N/A
5:53 pm 17:53 Sunny 59 15 29 -1.7 32 32 N 16 26 29.58 1002 10 16 N/A
6:53 pm 18:53 Sunny 55 12.8 31 -0.6 40 40 NNW 32 52 29.60 1002 10 16 N/A
7:53 pm 19:53 Mostly Clear 53 11.7 27 -2.8 37 37 NW 32 52 29.62 1003 10 16 N/A
8:53 pm 20:53 Mostly Clear 49 9.4 31 -0.6 50 50 NW 36 57 29.60 1002 10 16 N/A
9:53 pm 21:53 Clear 51 10.6 28 -2.2 41 41 NNW 28 44 29.59 1002 10 16 N/A
10:53 pm 22:53 Clear 51 10.6 27 -2.8 39 39 NNW 29 46 29.56 1001 10 16 N/A
11:53 pm 23:53 Mostly Clear 48 8.9 32 undefined 54 54 NNW 31 50 29.59 1002 10 16 N/A

Powered by AerisWeather